Regional Weather Roundup
Issued by NWS

Home | Current Version | Previous Version | Graphics & Text | Print | Product List | Glossary On
Versions: 1 2 3 4 5 6 7 8 9 10 11 12 13 14 15 16 17 18 19 20 21 22 23 24 25 26 27 28 29 30 31 32 33 34 35 36 37 38 39 40 41 42 43 44 45 46 47 48 49 50
605
ASUS45 KTFX 271310
RWRMT
MONTANA REGIONAL WEATHER ROUNDUP
NATIONAL WEATHER SERVICE GREAT FALLS MT
700 AM MDT TUE JUN 27 2017

NOTE: "FAIR" INDICATES FEW OR NO CLOUDS BELOW 12000 FEET WITH NO
SIGNIFICANT WEATHER AND/OR OBSTRUCTIONS TO VISIBILITY.

MTZ001>007-043-271400-
WEST OF THE DIVIDE

CITY           SKY/WX    TMP DP  RH WIND       PRES   REMARKS
KALISPELL      CLOUDY    58  58 100 N5        29.82S
MISSOULA       LGT RAIN  61  57  87 E6        29.88F
BUTTE          MOSUNNY   54  50  86 NW5       29.97S
MULLAN PASS    MOCLDY    51  45  79 VRB7      29.97S
ANACONDA         N/A     61  48  63 S12G18    29.92F
DEER LODGE       N/A     59  50  72 S5        29.93R
EUREKA           N/A     64  54  68 CALM      29.79R
HAMILTON         N/A     61  52  72 CALM      29.93R
$$

MTZ008-052>055-271400-
SOUTHWEST MONTANA

CITY           SKY/WX    TMP DP  RH WIND       PRES   REMARKS
BOZEMAN        CLOUDY    57  53  86 W3        29.90R
DILLON         CLOUDY    54  45  71 SE22      29.88F
W YELLOWSTONE  CLOUDY    54  45  71 CALM      30.03R
ENNIS          CLOUDY    55  50  82 W22G32    30.05R
THREE FORKS      N/A     54  52  93 CALM      29.90R
$$

MTZ009-010-012-014-046-048-049-054-271400-
EAST SLOPES AND CENTRAL MONTANA

CITY           SKY/WX    TMP DP  RH WIND       PRES   REMARKS
CUT BANK       CLOUDY    64  48  56 W17       29.75R
GREAT FALLS    MOSUNNY   64  50  60 SW17G26   29.76R
MALMSTROM AFB  MOSUNNY   64  52  65 SW16      29.75S
HELENA         CLOUDY    58  54  86 E5        29.85R
CHOTEAU          N/A     64  46  52 W6        29.79R
$$

MTZ011-013-016-021-045-047-050-051-271400-
NORTH CENTRAL MONTANA

CITY           SKY/WX    TMP DP  RH WIND       PRES   REMARKS
HAVRE          CLOUDY    70  52  52 SW14      29.65S
LEWISTOWN      CLOUDY    62  51  67 W5        29.77R
N BAR RANCH      N/A     68  43  40 NW6       29.79S
CHINOOK          N/A     73  50  43 SW14G20   29.63R
FORT BENTON      N/A    N/A N/A N/A MISG      29.71S
$$

MTZ017>020-022>027-061-062-271400-
NORTHEAST MONTANA

CITY           SKY/WX    TMP DP  RH WIND       PRES   REMARKS
GLASGOW        MOSUNNY   68  41  37 E9        29.59F
JORDAN           N/A     68  48  48 W8        29.61F
SIDNEY         CLOUDY    63  44  50 SE8       29.66F
WOLF POINT     MOSUNNY   68  42  38 NE6       29.60F
MALTA          SUNNY     64  52  63 SW6       29.59S
PLENTYWOOD       N/A     64  43  45 S8        29.64R
POPLAR           N/A     64  45  48 E3        29.61F
$$

MTZ028>42-056>058-271400-
SOUTHCENTRAL AND SOUTHEAST MONTANA

CITY           SKY/WX    TMP DP  RH WIND       PRES   REMARKS
BAKER          MOSUNNY   59  40  49 SE12      29.71S
BILLINGS       CLOUDY    71  46  40 SW10      29.75S
LIVINGSTON     PTSUNNY   61  50  67 NW8       29.85S
MILES CITY     PTSUNNY   67  41  38 S9        29.64F
BIG TIMBER     SUNNY     63  48  59 W16       29.85R
ROUNDUP          N/A     70  45  40 S7        29.68S
$$

REGIONAL REPORTS...DAKOTAS

CITY           SKY/WX    TMP DP  RH WIND       PRES   REMARKS
WILLISTON      CLOUDY    66  43  43 S13G21    29.66F
MINOT          CLOUDY    65  40  39 SE17G26   29.72F
DICKINSON      MOSUNNY   60  39  45 S21       29.69F
BEACH            N/A     57  39  51 S14G22    29.72F
CROSBY           N/A     64  43  45 S17G28    29.61F
TIOGA            N/A     63  41  45 S28G38    29.67F
WATFORD CITY     N/A     63  41  45 SE12      29.67F
BISMARCK       CLOUDY    61  42  49 S12       29.82F
GRAND FORKS    CLOUDY    58  46  64 S13       29.91F
FARGO          SUNNY     62  43  49 S15       29.97F
BUFFALO SD       N/A     63  44  50 SE13      29.67F
RAPID CITY     SUNNY     65  54  67 S24G32    29.79F
$$

REGIONAL REPORTS...WYOMING/IDAHO/WASHINGTON

CITY           SKY/WX    TMP DP  RH WIND       PRES   REMARKS
GILLETTE       CLOUDY    62  52  69 S15G22    29.81R
SHERIDAN       PTSUNNY   72  43  35 W15       29.78S
BUFFALO WY     CLOUDY    70  42  36 VRB3      29.85R
CODY           CLOUDY    65  47  52 S16G22    29.86F
YELLOWSTONE LA   N/A     50  45  83 CALM      30.13R
IDAHO FALLS    MOSUNNY   56  53  90 NW5       29.92R
SALMON         CLOUDY    57  48  72 S7        29.95R
BOISE          MOCLDY    64  51  62 CALM      29.91S
SPOKANE        MOCLDY    59  55  87 S8        29.84R
$$

REGIONAL REPORTS...ALBERTA

CITY           SKY/WX    TMP DP  RH WIND       PRES   REMARKS
EDMONTON       MOSUNNY   54  45  71 W8        29.66F
CALGARY        PTSUNNY   54  43  66 N15       29.78R
LETHBRIDGE     PTSUNNY   59  48  67 N20G31    29.74R
MEDICINE HAT   LGT RAIN  63  54  72 NW17G26   29.63R
CARDSTON         N/A     68  48  49 W10G22      N/A
MILK RIVER       N/A     64  50  59 W15G22      N/A
ONEFOUR          N/A     64  50  59 NW6         N/A
$$

REGIONAL REPORTS...SASKATCHEWAN

CITY           SKY/WX    TMP DP  RH WIND       PRES   REMARKS
SWIFT CURRENT  SUNNY     66  48  52 SW15G31   29.55S
REGINA         MOSUNNY   61  46  59 SE14G21   29.58F
SASKATOON      PTSUNNY   63  48  59 S12       29.45F
CYPRESS HILLS    N/A     64  45  48 NW12G23     N/A
VAL MARIE        N/A     66  48  52 NW10        N/A
ROCKGLEN         N/A     64  45  48 S13         N/A
$$




USA.gov is the U.S. government's official web portal to all federal, state and local government web resources and services.